Location: Peebles
(55.6412°N, 3.1714°W)
Time: 05:31:00
(UTC+01:00)

deb NNS O-4 - Pass Details

Date: 30 June 2022
Orbit: 977 x 1074 km, 89.9° (Epoch: 16 August)

Event Time Altitude Azimuth Distance (km) Brightness Sun altitude
Rises 00:04:58 0° 100° (E) 3,867 ? -9.7°
Reaches altitude 10° 00:09:52 10° 68° (ENE) 2,909 ? -9.9°
Maximum altitude 00:11:35 11° 53° (NE) 2,823 ? -10.0°
Drops below altitude 10° 00:13:18 10° 37° (NE) 2,903 ? -10.0°
Sets 00:18:10 0° 6° (N) 3,843 ? -10.2°
